BWA8000 TTPP-MWCR

Flight info

Callsign BWA8000
Flight time N/A
Altitude 36000
Route DAREK DCT MASPA DCT VODIN UA511 SIA UG633 NALRO GORAN3
Aircraft B38M/M-MSDE3FGHIRWYLB1/HB1

Departure

Time N/A
Airport Piarco International Airport (TTPP)

Arrival

Time 2026-04-21 20:26
Airport Owen Roberts International Airport (MWCR)
Time Latitude Longitude Altitude Speed Heading
2026-04-21 17:58 13.06533 -65.08006 35999 ft 452 kts 302°
2026-04-21 17:58 13.08332 -65.10649 36003 ft 452 kts 302°
2026-04-21 17:59 13.11932 -65.15938 36001 ft 452 kts 302°
2026-04-21 17:59 13.15530 -65.21227 35997 ft 452 kts 302°
2026-04-21 18:00 13.19126 -65.26516 36005 ft 452 kts 302°
2026-04-21 18:00 13.22728 -65.31819 36002 ft 452 kts 302°
2026-04-21 18:01 13.26303 -65.37083 36008 ft 452 kts 302°
2026-04-21 18:01 13.29912 -65.42402 36001 ft 451 kts 302°
2026-04-21 18:02 13.33482 -65.47667 36001 ft 451 kts 302°
2026-04-21 18:02 13.37068 -65.52957 36004 ft 451 kts 302°
2026-04-21 18:03 13.40650 -65.58246 36009 ft 451 kts 302°
2026-04-21 18:03 13.44231 -65.63537 36007 ft 451 kts 302°
2026-04-21 18:04 13.47808 -65.68822 36009 ft 450 kts 302°
2026-04-21 18:04 13.51374 -65.74096 36008 ft 449 kts 302°
2026-04-21 18:05 13.54923 -65.79348 36007 ft 449 kts 302°
2026-04-21 18:05 13.58489 -65.84630 36007 ft 449 kts 302°
2026-04-21 18:06 13.62048 -65.89903 36009 ft 449 kts 302°
2026-04-21 18:06 13.65612 -65.95187 36007 ft 449 kts 302°
2026-04-21 18:07 13.69173 -66.00470 36010 ft 449 kts 302°
2026-04-21 18:07 13.72705 -66.05713 36010 ft 449 kts 302°
2026-04-21 18:08 13.76268 -66.11004 36010 ft 449 kts 302°
2026-04-21 18:08 13.79831 -66.16301 35989 ft 452 kts 302°
2026-04-21 18:09 13.83407 -66.21619 35990 ft 452 kts 302°
2026-04-21 18:09 13.86979 -66.26934 35985 ft 452 kts 302°
2026-04-21 18:10 13.90553 -66.32256 35992 ft 452 kts 302°
2026-04-21 18:10 13.94104 -66.37547 35990 ft 452 kts 302°
2026-04-21 18:11 13.97678 -66.42876 35992 ft 452 kts 302°
2026-04-21 18:11 14.01253 -66.48210 35995 ft 452 kts 302°
2026-04-21 18:12 14.04817 -66.53530 35986 ft 451 kts 302°
2026-04-21 18:12 14.08377 -66.58848 35990 ft 451 kts 302°
2026-04-21 18:13 14.11937 -66.64170 35991 ft 450 kts 302°
2026-04-21 18:13 14.15471 -66.69455 35987 ft 451 kts 302°
2026-04-21 18:14 14.20800 -66.77432 35988 ft 450 kts 302°
2026-04-21 18:15 14.24345 -66.82743 35990 ft 450 kts 302°
2026-04-21 18:15 14.27893 -66.88061 35990 ft 449 kts 302°
2026-04-21 18:16 14.30838 -66.92479 35991 ft 449 kts 302°
2026-04-21 18:16 14.34377 -66.97789 36001 ft 449 kts 302°
2026-04-21 18:17 14.37920 -67.03108 36010 ft 450 kts 302°
2026-04-21 18:17 14.41441 -67.08400 36007 ft 450 kts 302°
2026-04-21 18:18 14.44979 -67.13718 36010 ft 450 kts 302°
2026-04-21 18:18 14.48521 -67.19048 36008 ft 450 kts 302°
2026-04-21 18:19 14.52057 -67.24370 36007 ft 449 kts 302°
2026-04-21 18:19 14.55561 -67.29719 36003 ft 448 kts 297°
2026-04-21 18:19 14.56745 -67.32662 36016 ft 443 kts 286°
2026-04-21 18:20 14.57771 -67.35665 36007 ft 445 kts 288°
2026-04-21 18:20 14.59814 -67.41659 36010 ft 445 kts 287°
2026-04-21 18:21 14.61829 -67.47704 36011 ft 445 kts 287°
2026-04-21 18:21 14.63840 -67.53753 36007 ft 445 kts 287°
2026-04-21 18:22 14.65849 -67.59803 36008 ft 445 kts 287°
2026-04-21 18:22 14.67856 -67.65853 36008 ft 445 kts 287°
2026-04-21 18:23 14.69861 -67.71904 36012 ft 444 kts 287°
2026-04-21 18:23 14.71850 -67.77914 36009 ft 445 kts 287°
2026-04-21 18:24 14.73851 -67.83963 36012 ft 445 kts 287°
2026-04-21 18:24 14.75855 -67.90030 36008 ft 445 kts 287°
2026-04-21 18:25 14.77855 -67.96089 36011 ft 445 kts 287°
2026-04-21 18:25 14.79848 -68.02132 36007 ft 444 kts 287°
2026-04-21 18:26 14.81829 -68.08144 36009 ft 445 kts 287°
2026-04-21 18:26 14.83821 -68.14198 36008 ft 444 kts 287°
2026-04-21 18:27 14.85812 -68.20253 36008 ft 445 kts 287°
2026-04-21 18:27 14.87802 -68.26311 36010 ft 444 kts 287°
2026-04-21 18:28 14.89788 -68.32363 36009 ft 444 kts 287°
2026-04-21 18:28 14.91772 -68.38415 35997 ft 444 kts 287°
2026-04-21 18:29 14.93744 -68.44434 35996 ft 444 kts 287°
2026-04-21 18:29 14.95724 -68.50486 36001 ft 444 kts 287°
2026-04-21 18:30 14.97715 -68.56577 36009 ft 444 kts 287°
2026-04-21 18:30 14.99679 -68.62592 36011 ft 444 kts 287°
2026-04-21 18:31 15.01653 -68.68642 36008 ft 444 kts 287°
2026-04-21 18:31 15.03627 -68.74699 36010 ft 444 kts 287°
2026-04-21 18:32 15.05601 -68.80762 36008 ft 444 kts 287°
2026-04-21 18:32 15.07572 -68.86824 36008 ft 444 kts 287°
2026-04-21 18:33 15.09542 -68.92885 36010 ft 444 kts 287°
2026-04-21 18:33 15.11497 -68.98910 36008 ft 444 kts 287°
2026-04-21 18:34 15.13461 -69.04965 36014 ft 444 kts 287°
2026-04-21 18:34 15.15424 -69.11028 36017 ft 444 kts 287°
2026-04-21 18:35 15.17055 -69.16064 36018 ft 444 kts 287°
2026-04-21 18:35 15.19344 -69.23145 36018 ft 444 kts 287°
2026-04-21 18:36 15.21302 -69.29206 36018 ft 444 kts 287°
2026-04-21 18:36 15.23249 -69.35242 36017 ft 444 kts 287°
2026-04-21 18:37 15.25204 -69.41307 36018 ft 444 kts 287°
2026-04-21 18:37 15.27156 -69.47369 36017 ft 444 kts 287°
2026-04-21 18:38 15.29108 -69.53438 36017 ft 444 kts 287°
2026-04-21 18:38 15.31055 -69.59500 36017 ft 443 kts 287°
2026-04-21 18:39 15.32999 -69.65554 36016 ft 442 kts 287°
2026-04-21 18:39 15.34939 -69.71604 36018 ft 443 kts 287°
2026-04-21 18:40 15.36870 -69.77632 36016 ft 442 kts 287°
2026-04-21 18:40 15.38483 -69.82671 36017 ft 443 kts 287°
2026-04-21 18:41 15.40745 -69.89749 36018 ft 442 kts 287°
2026-04-21 18:41 15.42681 -69.95809 36018 ft 442 kts 287°
2026-04-21 18:42 15.44614 -70.01872 36018 ft 442 kts 287°
2026-04-21 18:42 15.46535 -70.07897 36019 ft 444 kts 287°
2026-04-21 18:43 15.48473 -70.13986 36018 ft 444 kts 287°
2026-04-21 18:43 15.50407 -70.20067 36019 ft 444 kts 287°
2026-04-21 18:44 15.52342 -70.26157 36018 ft 444 kts 287°
2026-04-21 18:44 15.54274 -70.32245 36018 ft 444 kts 287°
2026-04-21 18:45 15.56205 -70.38337 36018 ft 444 kts 287°
2026-04-21 18:45 15.58136 -70.44433 36018 ft 444 kts 287°
2026-04-21 18:46 15.60047 -70.50476 36019 ft 444 kts 287°
2026-04-21 18:46 15.61972 -70.56566 36018 ft 444 kts 287°
2026-04-21 18:47 15.63893 -70.62653 36018 ft 444 kts 287°
2026-04-21 18:47 15.65815 -70.68749 36018 ft 444 kts 287°
2026-04-21 18:48 15.67738 -70.74850 36017 ft 445 kts 287°
2026-04-21 18:48 15.69658 -70.80951 36018 ft 445 kts 287°
2026-04-21 18:49 15.71580 -70.87066 36017 ft 445 kts 287°
2026-04-21 18:49 15.73174 -70.92145 36018 ft 445 kts 287°
2026-04-21 18:50 15.75417 -70.99293 36018 ft 445 kts 287°
2026-04-21 18:50 15.77322 -71.05374 36018 ft 445 kts 287°
2026-04-21 18:51 15.79234 -71.11487 36018 ft 445 kts 287°
2026-04-21 18:51 15.81147 -71.17602 36011 ft 445 kts 287°
2026-04-21 18:52 15.83057 -71.23717 36005 ft 446 kts 287°
2026-04-21 18:52 15.84967 -71.29840 36007 ft 445 kts 287°
2026-04-21 18:53 15.86874 -71.35959 36008 ft 445 kts 287°
2026-04-21 18:53 15.88777 -71.42072 36007 ft 445 kts 287°
2026-04-21 18:54 15.90681 -71.48195 36011 ft 445 kts 287°
2026-04-21 18:54 15.92569 -71.54273 36004 ft 445 kts 287°
2026-04-21 18:55 15.94147 -71.59359 35998 ft 445 kts 287°
2026-04-21 18:55 15.96367 -71.66521 36006 ft 445 kts 287°
2026-04-21 18:56 15.98260 -71.72635 36011 ft 445 kts 287°
2026-04-21 18:56 16.00158 -71.78773 36011 ft 445 kts 287°
2026-04-21 18:57 16.02037 -71.84857 36007 ft 445 kts 287°
2026-04-21 18:57 16.03931 -71.90994 36009 ft 445 kts 287°
2026-04-21 18:58 16.05818 -71.97115 36009 ft 445 kts 287°
2026-04-21 18:58 16.07703 -72.03239 36011 ft 445 kts 287°
2026-04-21 18:59 16.09588 -72.09366 36010 ft 445 kts 287°
2026-04-21 18:59 16.11461 -72.15465 36011 ft 445 kts 287°
2026-04-21 19:00 16.13342 -72.21594 36008 ft 445 kts 287°
2026-04-21 19:00 16.15219 -72.27719 36013 ft 445 kts 287°
2026-04-21 19:01 16.17101 -72.33863 35998 ft 444 kts 286°
2026-04-21 19:01 16.18971 -72.39979 36017 ft 444 kts 286°
2026-04-21 19:02 16.20841 -72.46103 36018 ft 444 kts 286°
2026-04-21 19:02 16.22710 -72.52225 36018 ft 444 kts 286°
2026-04-21 19:03 16.24261 -72.57315 36018 ft 444 kts 286°
2026-04-21 19:03 16.26126 -72.63440 36018 ft 444 kts 286°
2026-04-21 19:04 16.27990 -72.69566 36019 ft 444 kts 286°
2026-04-21 19:04 16.29850 -72.75691 36013 ft 443 kts 286°
2026-04-21 19:05 16.31693 -72.81763 36007 ft 442 kts 286°
2026-04-21 19:05 16.33547 -72.87879 36010 ft 443 kts 286°
2026-04-21 19:06 16.35401 -72.93998 36005 ft 443 kts 286°
2026-04-21 19:06 16.37254 -73.00124 36010 ft 443 kts 286°
2026-04-21 19:07 16.39107 -73.06256 36009 ft 443 kts 286°
2026-04-21 19:07 16.40958 -73.12386 36007 ft 443 kts 286°
2026-04-21 19:08 16.42805 -73.18513 36002 ft 443 kts 286°
2026-04-21 19:08 16.44652 -73.24644 35987 ft 444 kts 286°
2026-04-21 19:09 16.46490 -73.30754 35981 ft 444 kts 286°
2026-04-21 19:09 16.48337 -73.36901 35981 ft 444 kts 286°
2026-04-21 19:10 16.50187 -73.43063 35980 ft 444 kts 286°
2026-04-21 19:10 16.52151 -73.49166 35985 ft 445 kts 292°
2026-04-21 19:11 16.54585 -73.55109 35993 ft 446 kts 291°
2026-04-21 19:11 16.56943 -73.61049 35994 ft 446 kts 291°
2026-04-21 19:12 16.59308 -73.67041 35991 ft 446 kts 291°
2026-04-21 19:12 16.61670 -73.73030 35985 ft 446 kts 291°
2026-04-21 19:13 16.64029 -73.79021 35993 ft 446 kts 291°
2026-04-21 19:13 16.66387 -73.85013 35985 ft 446 kts 291°
2026-04-21 19:14 16.68740 -73.90997 35989 ft 445 kts 291°
2026-04-21 19:14 16.71072 -73.96934 35987 ft 445 kts 291°
2026-04-21 19:15 16.73416 -74.02910 35990 ft 445 kts 291°
2026-04-21 19:15 16.75762 -74.08895 35992 ft 446 kts 291°
2026-04-21 19:16 16.78105 -74.14877 35989 ft 445 kts 291°
2026-04-21 19:16 16.80444 -74.20858 35989 ft 444 kts 291°
2026-04-21 19:17 16.83947 -74.29823 35995 ft 445 kts 291°
2026-04-21 19:17 16.86278 -74.35796 35999 ft 443 kts 291°
2026-04-21 19:18 16.88603 -74.41760 36000 ft 443 kts 291°
2026-04-21 19:18 16.90924 -74.47721 35998 ft 443 kts 291°
2026-04-21 19:19 16.93240 -74.53674 36001 ft 443 kts 290°
2026-04-21 19:19 16.95554 -74.59626 35998 ft 442 kts 290°
2026-04-21 19:20 16.97836 -74.65502 35998 ft 442 kts 290°
2026-04-21 19:20 16.99940 -74.71533 36001 ft 442 kts 288°
2026-04-21 19:21 17.01963 -74.77551 36002 ft 442 kts 288°
2026-04-21 19:21 17.04008 -74.83604 35995 ft 441 kts 288°
2026-04-21 19:22 17.06051 -74.89652 35996 ft 441 kts 288°
2026-04-21 19:22 17.08088 -74.95690 36000 ft 441 kts 288°
2026-04-21 19:23 17.10127 -75.01739 36000 ft 441 kts 288°
2026-04-21 19:23 17.12163 -75.07786 36001 ft 441 kts 288°
2026-04-21 19:24 17.14199 -75.13842 36006 ft 441 kts 288°
2026-04-21 19:24 17.16215 -75.19844 36009 ft 440 kts 288°
2026-04-21 19:25 17.18240 -75.25881 36014 ft 440 kts 288°
2026-04-21 19:25 17.20265 -75.31922 36017 ft 440 kts 288°
2026-04-21 19:26 17.22289 -75.37966 36018 ft 440 kts 288°
2026-04-21 19:26 17.24307 -75.44002 36016 ft 439 kts 288°
2026-04-21 19:27 17.26309 -75.49994 36017 ft 439 kts 288°
2026-04-21 19:27 17.28322 -75.56026 36023 ft 439 kts 288°
2026-04-21 19:28 17.30331 -75.62054 36026 ft 438 kts 288°
2026-04-21 19:28 17.32337 -75.68080 36027 ft 438 kts 288°
2026-04-21 19:29 17.34342 -75.74108 36027 ft 438 kts 288°
2026-04-21 19:29 17.36342 -75.80131 36028 ft 437 kts 288°
2026-04-21 19:30 17.38038 -75.85236 36031 ft 437 kts 288°
2026-04-21 19:30 17.40030 -75.91249 36018 ft 436 kts 288°
2026-04-21 19:31 17.42017 -75.97250 36018 ft 436 kts 288°
2026-04-21 19:31 17.44000 -76.03245 36016 ft 436 kts 288°
2026-04-21 19:32 17.45973 -76.09214 36018 ft 436 kts 288°
2026-04-21 19:32 17.47954 -76.15219 36018 ft 436 kts 288°
2026-04-21 19:33 17.49923 -76.21192 36017 ft 436 kts 288°
2026-04-21 19:33 17.51901 -76.27199 36017 ft 436 kts 288°
2026-04-21 19:34 17.53879 -76.33211 36018 ft 436 kts 288°
2026-04-21 19:34 17.55855 -76.39226 36017 ft 436 kts 288°
2026-04-21 19:35 17.58816 -76.48253 36018 ft 436 kts 288°
2026-04-21 19:36 17.60777 -76.54237 36017 ft 436 kts 288°
2026-04-21 19:36 17.62746 -76.60255 36018 ft 436 kts 288°
2026-04-21 19:37 17.64717 -76.66284 36019 ft 437 kts 288°
2026-04-21 19:37 17.66676 -76.72285 36018 ft 437 kts 288°
2026-04-21 19:38 17.68643 -76.78316 36017 ft 437 kts 288°
2026-04-21 19:38 17.70281 -76.83345 36016 ft 438 kts 288°
2026-04-21 19:39 17.72573 -76.90391 36018 ft 438 kts 287°
2026-04-21 19:39 17.74543 -76.96452 36016 ft 437 kts 287°
2026-04-21 19:40 17.76506 -77.02500 36017 ft 438 kts 287°
2026-04-21 19:40 17.78443 -77.08474 36017 ft 438 kts 287°
2026-04-21 19:41 17.80410 -77.14547 36018 ft 438 kts 287°
2026-04-21 19:41 17.82369 -77.20605 36018 ft 438 kts 287°
2026-04-21 19:42 17.84328 -77.26667 36018 ft 438 kts 287°
2026-04-21 19:42 17.86277 -77.32707 36017 ft 438 kts 287°
2026-04-21 19:43 17.88235 -77.38781 36019 ft 438 kts 287°
2026-04-21 19:43 17.90173 -77.44800 36017 ft 437 kts 287°
2026-04-21 19:44 17.92120 -77.50856 36016 ft 437 kts 287°
2026-04-21 19:44 17.94070 -77.56927 36021 ft 438 kts 287°
2026-04-21 19:45 17.96011 -77.62978 36017 ft 437 kts 287°
2026-04-21 19:45 17.97941 -77.68999 36017 ft 436 kts 287°
2026-04-21 19:46 17.99877 -77.75050 36021 ft 437 kts 287°
2026-04-21 19:46 18.01810 -77.81098 36015 ft 435 kts 287°
2026-04-21 19:47 18.03726 -77.87097 36018 ft 436 kts 287°
2026-04-21 19:47 18.05652 -77.93136 36018 ft 436 kts 287°
2026-04-21 19:48 18.07580 -77.99189 36016 ft 436 kts 287°
2026-04-21 19:48 18.09496 -78.05213 36018 ft 436 kts 287°
2026-04-21 19:49 18.11416 -78.11255 36017 ft 435 kts 287°
2026-04-21 19:49 18.13334 -78.17298 36025 ft 436 kts 287°
2026-04-21 19:50 18.14931 -78.22333 36027 ft 436 kts 287°
2026-04-21 19:50 18.17158 -78.29368 36026 ft 435 kts 287°
2026-04-21 19:51 18.19066 -78.35401 36027 ft 434 kts 287°
2026-04-21 19:51 18.20650 -78.40413 36027 ft 434 kts 287°
2026-04-21 19:52 18.22555 -78.46454 36029 ft 434 kts 287°
2026-04-21 19:52 18.24456 -78.52485 36028 ft 434 kts 287°
2026-04-21 19:53 18.26355 -78.58516 36026 ft 434 kts 287°
2026-04-21 19:53 18.28241 -78.64515 36026 ft 434 kts 287°
2026-04-21 19:54 18.30136 -78.70551 36028 ft 434 kts 287°
2026-04-21 19:54 18.32025 -78.76573 36027 ft 434 kts 287°
2026-04-21 19:55 18.33904 -78.82573 36027 ft 434 kts 287°
2026-04-21 19:55 18.35790 -78.88598 36028 ft 433 kts 287°
2026-04-21 19:56 18.37672 -78.94623 36036 ft 432 kts 287°
2026-04-21 19:56 18.39551 -79.00643 36037 ft 433 kts 287°
2026-04-21 19:57 18.41432 -79.06676 36035 ft 433 kts 287°
2026-04-21 19:57 18.43303 -79.12686 36036 ft 433 kts 287°
2026-04-21 19:58 18.45182 -79.18726 36033 ft 432 kts 287°
2026-04-21 19:58 18.47029 -79.24675 36036 ft 425 kts 287°
2026-04-21 19:59 18.48857 -79.30568 36044 ft 425 kts 287°
2026-04-21 19:59 18.50693 -79.36494 36050 ft 425 kts 287°
2026-04-21 20:00 18.52520 -79.42398 36055 ft 425 kts 287°
2026-04-21 20:00 18.54356 -79.48339 36052 ft 426 kts 287°
2026-04-21 20:01 18.56193 -79.54288 36051 ft 426 kts 287°
2026-04-21 20:01 18.58025 -79.60234 36051 ft 426 kts 287°
2026-04-21 20:02 18.59846 -79.66144 36058 ft 426 kts 287°
2026-04-21 20:02 18.60659 -79.68785 35607 ft 421 kts 287°
2026-04-21 20:02 18.61559 -79.71713 35073 ft 416 kts 287°
2026-04-21 20:02 18.62448 -79.74608 34631 ft 410 kts 287°
2026-04-21 20:03 18.63316 -79.77436 33935 ft 414 kts 287°
2026-04-21 20:03 18.64209 -79.80343 33066 ft 418 kts 287°
2026-04-21 20:03 18.65106 -79.83267 32242 ft 420 kts 287°
2026-04-21 20:03 18.66016 -79.86235 31450 ft 427 kts 287°
2026-04-21 20:04 18.66921 -79.89191 30818 ft 430 kts 287°
2026-04-21 20:04 18.67843 -79.92202 30223 ft 432 kts 287°
2026-04-21 20:04 18.68767 -79.95221 29598 ft 430 kts 287°
2026-04-21 20:04 18.69681 -79.98209 28982 ft 427 kts 287°
2026-04-21 20:05 18.70588 -80.01177 28351 ft 423 kts 287°
2026-04-21 20:05 18.71487 -80.04123 27732 ft 420 kts 287°
2026-04-21 20:05 18.72381 -80.07052 27135 ft 418 kts 287°
2026-04-21 20:05 18.73270 -80.09966 26537 ft 415 kts 287°
2026-04-21 20:06 18.74151 -80.12854 25946 ft 412 kts 287°
2026-04-21 20:06 18.75028 -80.15734 25358 ft 410 kts 287°
2026-04-21 20:06 18.75896 -80.18585 24787 ft 407 kts 287°
2026-04-21 20:06 18.76748 -80.21384 24215 ft 405 kts 287°
2026-04-21 20:07 18.77605 -80.24203 23654 ft 402 kts 287°
2026-04-21 20:07 18.78460 -80.27014 23089 ft 399 kts 287°
2026-04-21 20:07 18.79304 -80.29796 22539 ft 396 kts 287°
2026-04-21 20:07 18.80142 -80.32556 21992 ft 394 kts 287°
2026-04-21 20:08 18.80973 -80.35295 21450 ft 391 kts 287°
2026-04-21 20:08 18.81793 -80.37997 21006 ft 389 kts 287°
2026-04-21 20:08 18.82626 -80.40746 20392 ft 396 kts 288°
2026-04-21 20:08 18.83469 -80.43530 19831 ft 399 kts 288°
2026-04-21 20:09 18.84315 -80.46324 19306 ft 399 kts 288°
2026-04-21 20:09 18.85159 -80.49115 18794 ft 398 kts 288°
2026-04-21 20:09 18.85989 -80.51861 18288 ft 396 kts 288°
2026-04-21 20:09 18.86826 -80.54629 17786 ft 393 kts 288°
2026-04-21 20:10 18.87655 -80.57373 17279 ft 391 kts 288°
2026-04-21 20:10 18.88480 -80.60107 16791 ft 389 kts 288°
2026-04-21 20:10 18.89299 -80.62825 16303 ft 387 kts 288°
2026-04-21 20:10 18.90115 -80.65531 15822 ft 385 kts 288°
2026-04-21 20:11 18.90927 -80.68226 15346 ft 383 kts 288°
2026-04-21 20:11 18.91731 -80.70897 14873 ft 381 kts 288°
2026-04-21 20:11 18.92532 -80.73556 14403 ft 379 kts 288°
2026-04-21 20:11 18.93315 -80.76161 13924 ft 378 kts 288°
2026-04-21 20:12 18.94117 -80.78827 13430 ft 378 kts 288°
2026-04-21 20:12 18.94910 -80.81466 12970 ft 376 kts 288°
2026-04-21 20:12 18.95700 -80.84098 12503 ft 374 kts 288°
2026-04-21 20:12 18.96484 -80.86713 12037 ft 373 kts 288°
2026-04-21 20:13 18.97266 -80.89319 11582 ft 371 kts 288°
2026-04-21 20:13 18.98042 -80.91908 11165 ft 369 kts 288°
2026-04-21 20:13 18.98786 -80.94391 10983 ft 346 kts 288°
2026-04-21 20:13 18.99487 -80.96733 10833 ft 324 kts 288°
2026-04-21 20:14 19.00144 -80.98930 10660 ft 304 kts 289°
2026-04-21 20:14 19.00763 -81.00999 10528 ft 286 kts 289°
2026-04-21 20:14 19.01344 -81.02940 10385 ft 269 kts 289°
2026-04-21 20:14 19.01897 -81.04789 10253 ft 264 kts 289°
2026-04-21 20:15 19.02469 -81.06703 10106 ft 278 kts 289°
2026-04-21 20:15 19.03057 -81.08670 9849 ft 284 kts 289°
2026-04-21 20:15 19.03654 -81.10671 9539 ft 286 kts 289°
2026-04-21 20:15 19.04252 -81.12675 9229 ft 287 kts 289°
2026-04-21 20:16 19.04853 -81.14690 8918 ft 288 kts 289°
2026-04-21 20:16 19.05454 -81.16707 8605 ft 287 kts 289°
2026-04-21 20:16 19.06053 -81.18717 8292 ft 285 kts 289°
2026-04-21 20:16 19.06649 -81.20718 7984 ft 284 kts 289°
2026-04-21 20:17 19.07232 -81.22678 7674 ft 282 kts 289°
2026-04-21 20:17 19.07819 -81.24649 7370 ft 280 kts 289°
2026-04-21 20:17 19.08404 -81.26617 7063 ft 279 kts 289°
2026-04-21 20:17 19.08983 -81.28563 6762 ft 276 kts 289°
2026-04-21 20:18 19.09365 -81.29849 6559 ft 275 kts 289°
2026-04-21 20:18 19.10126 -81.32408 6153 ft 273 kts 289°
2026-04-21 20:18 19.10694 -81.34324 5851 ft 272 kts 289°
2026-04-21 20:18 19.11258 -81.36221 5558 ft 270 kts 289°
2026-04-21 20:19 19.11816 -81.38102 5261 ft 267 kts 289°
2026-04-21 20:19 19.12373 -81.39978 4958 ft 266 kts 289°
2026-04-21 20:19 19.12925 -81.41840 4670 ft 264 kts 289°
2026-04-21 20:19 19.13473 -81.43688 4365 ft 263 kts 289°
2026-04-21 20:20 19.14018 -81.45530 4116 ft 260 kts 289°
2026-04-21 20:20 19.14552 -81.47331 3989 ft 252 kts 289°
2026-04-21 20:20 19.15118 -81.49047 3852 ft 242 kts 301°
2026-04-21 20:20 19.16207 -81.50265 3692 ft 225 kts 334°
2026-04-21 20:21 19.17633 -81.50819 3565 ft 213 kts 347°
2026-04-21 20:21 19.19008 -81.51228 3529 ft 197 kts 348°
2026-04-21 20:21 19.20288 -81.51596 3426 ft 184 kts 348°
2026-04-21 20:21 19.21494 -81.51932 3303 ft 175 kts 349°
2026-04-21 20:22 19.22650 -81.52253 3180 ft 169 kts 349°
2026-04-21 20:22 19.24803 -81.51932 2845 ft 159 kts 42°
2026-04-21 20:22 19.25426 -81.50995 2641 ft 160 kts 67°
2026-04-21 20:23 19.25766 -81.49902 2464 ft 154 kts 71°
2026-04-21 20:23 19.26062 -81.48833 2300 ft 149 kts 72°
2026-04-21 20:23 19.26348 -81.47779 2157 ft 148 kts 71°
2026-04-21 20:23 19.26648 -81.46750 2052 ft 146 kts 72°
2026-04-21 20:24 19.26908 -81.45715 1815 ft 145 kts 74°
2026-04-21 20:24 19.27156 -81.44683 1535 ft 144 kts 74°
2026-04-21 20:24 19.27401 -81.43654 1338 ft 144 kts 74°
2026-04-21 20:24 19.27643 -81.42636 1191 ft 145 kts 74°
2026-04-21 20:25 19.27890 -81.41601 977 ft 144 kts 74°
2026-04-21 20:25 19.28130 -81.40578 789 ft 142 kts 75°
2026-04-21 20:25 19.28361 -81.39575 615 ft 140 kts 74°
2026-04-21 20:25 19.28605 -81.38560 413 ft 143 kts 74°
2026-04-21 20:26 19.28852 -81.37547 207 ft 140 kts 73°
2026-04-21 20:26 19.29094 -81.36544 28 ft 139 kts 75°
2026-04-21 20:26 19.29285 -81.35750 25 ft 74 kts 76°
2026-04-21 20:26 19.29369 -81.35389 21 ft 45 kts 75°
2026-04-21 20:27 19.29434 -81.35125 23 ft 26 kts 75°
2026-04-21 20:27 19.29474 -81.34934 26 ft 26 kts 73°
2026-04-21 20:27 19.29545 -81.34902 26 ft 13 kts 313°
2026-04-21 20:27 19.29554 -81.34987 23 ft 13 kts 256°
2026-04-21 20:28 19.29531 -81.35088 21 ft 13 kts 256°
2026-04-21 20:28 19.29507 -81.35197 21 ft 17 kts 256°
2026-04-21 20:28 19.29477 -81.35326 21 ft 20 kts 257°
2026-04-21 20:28 19.29450 -81.35445 22 ft 14 kts 256°
2026-04-21 20:29 19.29430 -81.35547 20 ft 9 kts 272°
2026-04-21 20:29 19.29434 -81.35562 20 ft 1 kts 296°
2026-04-21 20:29 19.29466 -81.35589 22 ft 8 kts 330°
2026-04-21 20:29 19.29502 -81.35602 24 ft 3 kts 345°
2026-04-21 20:30 19.29520 -81.35607 21 ft 1 kts 345°
2026-04-21 20:30 19.29535 -81.35611 21 ft 2 kts 345°
2026-04-21 20:30 19.29551 -81.35616 21 ft 2 kts 345°